Regional Weather Roundup
Issued by NWS

Home | Current Version | Previous Version | Graphics & Text | Print | Product List | Glossary On
Versions: 1 2 3 4 5 6 7 8 9 10 11 12 13 14 15 16 17 18 19 20 21 22 23 24 25 26 27 28 29 30 31 32 33 34 35 36 37 38 39 40 41 42 43 44 45 46 47 48 49 50
782
ASUS43 KLMK 120610
RWRKY
KENTUCKY REGIONAL WEATHER ROUNDUP
NATIONAL WEATHER SERVICE LOUISVILLE KY
100 AM EST FRI FEB 12 2016

NOTE "FAIR" INDICATES FEW OR NO CLOUDS BELOW 12,000 FEET
WITH NO SIGNIFICANT WEATHER AND/OR OBSTRUCTIONS TO VISIBILITY.

KYZ001>023-026-027-061>063-070>075-120700-
WESTERN AND SOUTH CENTRAL KENTUCKY

CITY           SKY/WX    TMP DP  RH WIND       PRES   REMARKS
PADUCAH        CLOUDY    31  18  58 E6        30.21F WCI  25
HENDERSON      CLOUDY    28  12  50 E9        30.22F WCI  20
OWENSBORO      CLOUDY    28  14  55 NE9       30.24F WCI  19
HOPKINSVILLE   MOCLDY    30  18  60 NE7       30.22F WCI  24
BOWLING GREEN  MOCLDY    31  17  56 CALM      30.25F
GLASGOW        CLOUDY    30  18  62 SE5       30.22F WCI  25
$$

KYZ024-025-028>034-038-045-046-053-120700-
NORTH CENTRAL KENTUCKY

CITY           SKY/WX    TMP DP  RH WIND       PRES   REMARKS
LOUISVILLE/SDF CLOUDY    27   8  44 E6        30.26F WCI  20
LOUISVILLE/LOU CLOUDY    26  10  50 NE5       30.27F WCI  20
FORT KNOX      CLOUDY    26  11  52 NE5       30.23S WCI  20
$$

KYZ035>037-039>044-047>052-055>060-089>105-120700-
NORTHEAST KENTUCKY

CITY           SKY/WX    TMP DP  RH WIND       PRES   REMARKS
LEXINGTON      CLOUDY    22  12  65 CALM      30.24F
COVINGTON      CLOUDY    19   8  62 S5        30.25F WCI  12
FRANKFORT      CLOUDY    22  10  60 E5        30.24F WCI  16
$$

KYZ054-064>069-076>088-106>120-120700-
SOUTHEAST KENTUCKY

CITY           SKY/WX    TMP DP  RH WIND       PRES   REMARKS
JACKSON        PTCLDY    21   7  54 NE3       30.21F
LONDON         CLOUDY    26  10  50 NE3       30.21F
SOMERSET       MOCLDY    27  14  59 CALM      30.25F
MIDDLESBORO    CLOUDY    28  21  75 CALM      30.22F
MONTICELLO     CLOUDY    28  18  66 NW8       30.24S WCI  20
$$





USA.gov is the U.S. government's official web portal to all federal, state and local government web resources and services.